Wind_Speed
16 19 19 16 16 18 21 24 27 27 27 27 25 27 28 30 34 28 26 28 32 35 37 36 38 38 38 38 38 38 37 36 37 36 36 35 34 33 33 33 32 32 32 32 32 32 31 30 31
19 19 22 20 19 21 24 26 29 27 25 25 29 30 28 25 27 28 28 28 28 30 33 35 36 36 38 38 39 38 37 34 33 34 36 36 34 33 33 33 34 34 34 35 35 35 34 32 32
23 23 23 23 22 24 27 30 29 28 30 28 27 28 28 25 25 29 27 26 28 30 33 36 35 35 35 36 34 33 34 35 34 34 35 36 35 36 35 34 36 36 35 37 37 37 36 35 33
27 26 26 23 26 28 32 34 34 29 27 27 32 32 30 32 32 28 29 27 28 30 34 37 38 37 37 37 34 32 34 33 31 34 38 39 38 37 37 36 37 35 35 37 38 39 37 37 36
28 28 27 24 24 31 34 36 37 31 28 32 34 32 33 30 25 27 26 26 27 30 35 37 36 34 32 32 30 32 34 32 35 34 32 36 36 36 36 33 35 37 37 38 38 38 38 37 37
30 30 28 26 24 28 30 39 39 31 29 34 34 32 33 28 23 25 25 25 26 31 33 30 30 30 28 30 31 33 36 36 38 38 40 39 40 40 39 37 39 39 40 40 39 37 37 37 37
30 32 30 28 26 28 31 39 37 34 33 36 37 33 32 31 31 33 28 26 28 31 28 28 31 32 30 31 34 35 36 35 37 37 40 43 42 41 39 38 38 39 39 39 38 37 36 36 38
35 43 41 37 33 36 33 38 36 36 32 34 35 39 35 32 37 38 28 26 28 31 29 32 32 33 35 35 37 40 38 36 35 35 35 38 38 35 34 34 35 35 33 36 38 39 38 36 35
44 48 42 31 32 30 36 37 36 37 37 36 37 40 36 33 32 28 26 27 31 29 30 33 36 36 38 38 39 42 42 41 40 40 39 39 38 36 35 32 30 30 33 36 36 38 39 39 39
51 50 46 35 39 36 39 35 36 40 38 34 40 41 38 37 33 25 26 29 29 28 30 33 36 36 36 37 39 41 42 39 38 37 36 34 34 34 34 33 31 33 35 36 34 35 38 39 40
46 48 39 40 36 42 38 40 44 42 41 36 45 46 42 42 34 29 28 32 25 29 30 32 37 37 36 36 39 38 38 36 33 33 33 30 32 32 29 30 32 33 34 35 33 34 36 37 40
51 49 47 42 39 44 43 44 40 44 44 44 47 55 39 44 33 31 30 31 23 28 30 34 38 40 36 36 36 36 34 32 32 32 29 30 32 32 34 35 35 36 34 34 33 32 32 32 32
54 50 50 51 47 46 47 44 51 48 44 52 58 49 35 36 35 31 26 19 21 28 27 29 31 34 38 35 35 33 33 32 32 31 30 30 33 32 31 31 31 31 35 35 32 31 30 28 29
53 54 54 55 52 49 46 50 56 47 52 58 51 34 31 33 35 30 18 20 20 20 23 25 27 34 37 33 32 32 34 33 33 32 32 31 31 32 31 33 32 31 33 31 29 29 27 28 30
59 59 58 55 53 48 52 54 50 46 44 41 32 27 26 31 29 21 17 17 17 19 22 25 29 32 35 33 33 35 36 35 34 34 35 32 31 30 33 33 28 30 30 28 26 27 27 26 28
63 62 61 54 52 47 48 57 43 33 34 31 30 27 26 24 22 22 15 11 13 22 24 27 31 32 36 35 34 37 36 35 35 35 34 32 34 34 36 32 31 30 28 26 25 25 23 25 23
69 61 55 52 48 44 52 55 28 25 30 33 29 22 25 24 23 15 14 10 17 23 30 32 36 33 36 35 34 35 33 35 34 35 32 33 34 29 27 28 28 28 25 24 23 22 22 21 22
59 56 51 52 42 45 40 42 30 25 36 31 21 23 23 23 21 14 10 14 19 28 30 28 36 36 34 33 33 32 33 34 34 34 30 30 29 27 29 29 27 23 24 19 19 16 16 16 16
64 61 54 48 40 40 35 40 27 26 34 25 25 25 26 21 19 15 13 16 19 29 32 34 38 32 32 32 31 32 33 33 35 31 31 31 31 30 29 27 23 23 15 15 13 11 11 13 16
64 60 50 35 21 33 29 33 28 22 26 30 27 21 19 17 10 14 18 18 22 31 35 32 28 28 29 29 30 31 32 33 34 29 31 30 30 29 25 23 18 16 10 10 8 7 11 16 17
58 49 38 24 29 32 32 35 28 20 28 31 26 23 20 13 13 12 15 19 24 26 27 27 25 27 27 27 29 32 33 34 29 27 30 30 28 25 23 18 12 9 9 7 8 10 17 17 16
53 42 37 30 32 31 32 38 28 22 29 29 22 21 16 14 10 10 17 15 19 18 21 22 24 26 26 26 29 31 32 27 26 28 28 27 24 21 17 11 8 7 6 8 10 16 14 18 18
41 37 34 30 33 38 35 41 19 26 31 24 18 16 13 11 7 12 15 15 15 17 19 20 22 23 24 26 28 28 24 24 26 25 27 23 22 19 14 7 6 3 2 7 20 21 19 23 19
32 37 34 31 32 45 33 38 16 23 25 19 23 14 11 8 10 15 17 16 17 17 18 19 20 21 23 25 26 23 23 24 25 28 24 21 18 16 7 4 3 1 5 17 24 20 17 17 22
35 36 38 39 44 48 28 39 17 9 16 23 20 15 11 8 12 15 20 16 17 14 15 17 17 21 22 23 25 19 22 21 25 24 19 17 13 9 2 3 1 6 13 20 22 17 18 19 20
37 38 39 41 39 40 30 38 19 14 19 24 22 18 12 8 9 15 18 14 15 13 15 14 18 21 21 21 19 19 19 21 25 18 17 14 8 5 3 4 5 11 17 22 19 17 20 20 20
41 45 39 40 41 44 36 36 23 18 29 19 16 20 11 4 9 16 16 13 12 11 12 14 19 20 18 19 17 17 17 20 17 18 15 10 4 4 6 6 8 16 20 21 19 20 19 20 20
46 42 43 44 46 45 41 33 19 28 30 16 20 17 7 3 9 13 14 10 9 12 9 15 18 16 16 16 14 14 15 18 14 16 12 10 5 7 8 9 12 18 20 20 18 20 20 20 18
51 53 52 47 48 45 42 25 22 32 24 20 15 11 7 4 10 12 8 9 10 9 9 15 15 15 15 12 12 12 14 16 12 14 14 12 10 10 9 11 15 16 20 18 21 20 21 19 19
44 46 43 45 43 39 32 22 23 28 23 21 15 12 2 2 8 7 9 8 11 7 9 14 12 12 13 10 10 11 14 15 11 10 13 11 10 9 8 9 13 16 14 15 16 21 20 20 20
Wind_Direction
258 269 272 277 288 295 301 316 320 316 311 295 285 278 284 292 297 296 302 298 297 296 294 294 295 295 296 294 290 288 286 284 278 275 272 268 267 267 267 268 268 263 262 262 261 258 255 256 258
257 260 271 272 280 293 298 308 313 321 309 301 294 286 287 293 290 289 286 290 296 294 295 294 296 297 298 298 296 293 290 289 285 273 269 269 266 263 262 265 267 263 261 263 262 264 262 258 258
255 253 257 271 281 287 294 302 311 316 308 302 297 288 292 289 282 273 277 294 311 303 304 301 301 301 302 301 299 296 295 295 290 286 281 273 270 267 266 263 267 264 260 259 262 264 265 264 260
248 252 254 266 278 281 286 299 302 305 299 298 302 294 290 289 281 274 287 305 307 302 302 303 302 302 302 297 294 296 293 289 295 293 286 281 280 277 276 277 276 272 269 268 266 265 264 260 258
250 249 248 255 269 276 287 294 300 302 292 291 302 305 310 298 274 273 294 306 304 298 300 301 300 301 299 297 300 300 299 301 291 288 291 284 281 282 281 281 279 276 273 272 269 267 263 260 256
253 253 252 253 255 271 290 295 295 298 286 296 303 300 305 295 286 292 308 308 304 300 300 301 300 302 302 306 307 306 310 308 306 302 300 297 295 293 292 289 286 282 280 277 272 263 255 254 254
250 252 254 255 253 275 281 292 291 295 297 306 303 302 303 296 295 300 305 307 302 300 300 292 298 301 308 309 309 307 306 310 310 303 297 295 293 288 287 285 283 282 280 277 272 264 256 253 255
257 257 255 260 268 273 271 285 285 287 293 302 309 307 305 300 293 296 306 310 300 299 292 290 293 300 308 311 310 311 309 312 309 299 297 294 290 289 285 283 281 279 282 281 274 268 262 260 253
251 257 259 279 272 271 269 280 284 278 289 296 307 306 303 297 293 301 303 302 293 299 290 290 293 297 302 306 309 309 309 310 308 304 299 294 294 294 291 286 278 277 285 285 274 265 264 262 258
253 257 263 269 275 267 268 283 276 270 276 291 303 301 300 295 295 301 294 292 290 297 294 296 297 301 306 307 307 308 307 305 305 302 300 300 299 297 289 283 275 278 287 285 279 275 267 260 257
264 268 274 272 273 274 276 279 279 278 281 292 291 296 289 289 292 286 286 284 286 291 297 300 301 306 306 310 309 309 309 309 306 305 303 303 303 300 293 288 282 285 287 285 286 279 271 266 262
265 266 272 273 268 268 278 277 278 276 282 289 291 298 287 280 285 279 289 278 287 290 298 299 299 304 309 312 309 312 313 312 309 307 306 308 308 303 299 295 286 285 282 288 286 283 278 268 262
267 263 266 270 268 270 278 283 280 277 285 283 287 285 272 271 275 274 287 286 300 296 297 299 313 315 314 311 311 317 318 313 313 312 311 307 308 302 298 296 288 278 285 287 284 279 272 265 260
264 260 262 266 269 270 280 280 277 287 289 282 278 261 268 267 269 269 284 310 307 308 307 317 316 315 312 314 314 317 319 314 316 314 314 310 307 304 305 298 286 283 289 286 281 276 270 265 260
259 259 259 263 267 276 278 278 282 291 283 269 240 242 253 262 262 268 298 300 304 312 307 313 313 312 316 314 314 314 316 317 317 315 314 312 311 306 300 295 290 291 289 285 278 273 271 261 258
256 260 261 266 270 278 283 278 277 276 261 246 224 231 245 249 270 270 281 290 315 320 320 319 322 318 318 313 311 313 316 316 316 316 315 313 313 308 302 296 290 289 288 283 276 273 265 262 249
255 258 262 267 271 278 279 276 267 241 243 231 232 240 241 259 269 278 264 294 310 314 312 311 320 318 316 308 312 316 315 315 316 316 316 317 314 309 306 299 291 289 285 279 274 273 267 251 254
256 259 265 269 273 277 261 262 245 233 246 246 246 247 255 259 275 277 296 307 315 306 302 303 313 313 309 309 315 315 315 316 316 315 318 317 317 308 308 300 300 289 280 278 277 271 258 251 235
257 257 262 270 280 258 252 255 245 233 251 253 253 263 259 272 271 288 305 311 310 303 303 309 308 309 307 312 315 315 316 315 315 316 318 317 311 310 309 303 291 287 275 276 271 247 243 215 186
250 255 257 272 243 256 259 256 252 247 245 247 259 271 256 256 265 286 297 309 303 296 300 302 307 306 307 312 315 315 316 314 316 317 318 311 315 309 309 306 296 285 277 268 249 226 201 174 174
252 256 261 233 244 259 275 252 250 242 237 244 263 271 264 244 261 297 310 298 289 290 297 304 299 306 308 315 317 316 315 312 315 315 313 314 314 311 311 312 299 288 271 245 198 193 153 145 158
248 251 252 225 252 258 261 251 240 235 240 247 276 269 255 255 270 312 305 305 300 301 306 300 297 304 312 318 318 317 313 316 315 316 314 314 315 316 320 316 296 289 266 208 193 172 163 179 151
237 248 240 235 242 258 245 254 210 240 238 261 260 248 238 253 295 310 314 322 307 304 304 308 302 310 317 321 320 317 317 320 322 319 319 315 315 323 322 310 310 287 221 187 163 158 153 145 163
233 241 230 237 238 245 242 252 232 245 252 247 240 211 229 254 268 298 321 318 320 311 309 303 308 318 321 322 319 313 320 324 323 324 321 317 321 331 330 311 315 104 120 155 146 149 155 157 150
214 223 232 235 234 242 244 252 244 275 238 230 224 207 223 224 274 321 321 313 316 304 303 308 318 320 320 319 317 315 322 327 326 327 319 324 329 347 3 346 86 116 136 153 143 140 148 148 154
222 228 238 246 248 256 249 247 260 249 241 233 210 203 231 245 314 328 315 319 308 308 308 312 320 322 321 319 319 323 328 328 331 333 334 340 343 42 71 34 117 128 145 151 147 143 146 148 157
222 228 235 245 251 254 245 249 255 237 231 229 213 223 219 277 333 329 331 316 310 314 312 313 324 326 327 322 323 330 334 337 341 341 336 350 21 99 75 78 119 141 151 152 148 143 148 148 154
229 235 237 239 244 249 253 245 240 223 232 222 207 216 219 272 341 328 320 315 314 322 314 320 330 330 331 333 335 342 348 349 338 1 16 27 95 93 79 87 106 145 150 150 150 151 145 151 152
222 227 229 231 238 246 250 238 226 221 226 207 219 210 220 9 342 322 318 327 326 326 319 327 336 335 337 341 352 355 350 360 347 12 33 68 81 77 89 99 117 134 145 148 146 151 153 149 150
220 227 232 235 241 246 244 231 220 212 220 207 210 216 212 329 323 318 342 325 337 323 321 333 343 353 355 344 354 356 350 357 352 19 43 65 72 87 91 106 117 130 140 146 157 155 153 162 159
Height
5888 5890 5890 5888 5891 5887 5886 5886 5885 5885 5883 5881 5880 5879 5879 5878 5875 5873 5873 5870 5867 5864 5860 5855 5851 5848 5845 5843 5841 5839 5837 5835 5834 5833 5832 5830 5830 5830 5830 5830 5831 5831 5831 5831 5832 5836 5838 5839 5840
5886 5887 5889 5887 5887 5885 5885 5884 5881 5882 5880 5879 5879 5879 5879 5878 5874 5871 5870 5867 5864 5859 5854 5850 5846 5842 5839 5836 5833 5831 5830 5828 5826 5825 5825 5826 5825 5824 5823 5824 5825 5825 5825 5825 5826 5827 5829 5831 5832
5883 5884 5885 5884 5884 5883 5881 5881 5880 5877 5873 5873 5874 5875 5876 5875 5872 5869 5867 5863 5859 5854 5849 5844 5841 5838 5835 5831 5828 5825 5823 5821 5819 5818 5817 5816 5816 5816 5817 5817 5818 5818 5817 5819 5819 5821 5821 5823 5824
5878 5881 5883 5882 5879 5880 5879 5876 5876 5878 5873 5871 5869 5869 5872 5869 5866 5865 5863 5858 5854 5850 5845 5839 5836 5834 5831 5827 5824 5821 5818 5816 5814 5813 5812 5810 5808 5806 5806 5807 5809 5809 5810 5811 5811 5811 5813 5814 5815
5874 5874 5877 5879 5878 5876 5874 5872 5872 5873 5870 5866 5863 5861 5863 5863 5861 5861 5857 5853 5850 5846 5841 5836 5832 5829 5826 5823 5820 5817 5815 5811 5809 5807 5806 5804 5803 5802 5800 5797 5799 5799 5801 5802 5803 5802 5803 5805 5806
5869 5869 5871 5874 5875 5873 5870 5865 5865 5866 5863 5861 5859 5858 5859 5857 5855 5855 5853 5849 5846 5842 5837 5831 5827 5824 5821 5818 5815 5812 5809 5806 5803 5800 5798 5796 5794 5794 5791 5787 5788 5790 5791 5791 5792 5794 5795 5795 5798
5863 5862 5865 5868 5871 5870 5869 5860 5859 5859 5857 5856 5853 5852 5854 5852 5851 5850 5848 5844 5841 5837 5832 5827 5823 5820 5818 5814 5811 5808 5805 5802 5798 5795 5792 5789 5787 5786 5783 5781 5780 5781 5781 5781 5781 5783 5785 5787 5788
5857 5855 5858 5863 5866 5864 5865 5859 5857 5854 5855 5852 5850 5847 5848 5847 5845 5845 5843 5839 5836 5832 5827 5823 5819 5816 5813 5810 5806 5803 5800 5797 5793 5790 5785 5782 5779 5777 5776 5774 5773 5773 5772 5771 5771 5773 5773 5775 5778
5849 5847 5853 5860 5858 5860 5856 5855 5854 5849 5848 5846 5846 5844 5842 5840 5840 5840 5838 5834 5830 5827 5823 5819 5815 5812 5809 5805 5801 5798 5794 5790 5786 5781 5778 5774 5770 5768 5767 5765 5764 5764 5763 5761 5761 5761 5762 5763 5767
5840 5840 5846 5854 5850 5850 5848 5848 5849 5845 5843 5847 5843 5841 5837 5835 5835 5835 5832 5829 5826 5823 5818 5815 5811 5807 5804 5800 5796 5792 5788 5784 5779 5774 5771 5767 5763 5761 5759 5757 5757 5756 5755 5753 5751 5751 5751 5753 5756
5833 5831 5841 5843 5845 5840 5841 5842 5837 5839 5840 5843 5836 5836 5833 5831 5831 5829 5826 5824 5821 5817 5813 5809 5805 5800 5798 5795 5791 5786 5782 5777 5772 5769 5765 5761 5757 5754 5752 5750 5749 5748 5747 5745 5744 5742 5742 5742 5744
5821 5823 5829 5834 5833 5829 5832 5830 5834 5833 5832 5833 5829 5827 5825 5823 5826 5823 5820 5818 5816 5812 5809 5804 5800 5795 5793 5789 5784 5780 5775 5771 5768 5764 5759 5754 5750 5746 5744 5743 5742 5740 5738 5737 5735 5733 5733 5733 5734
5810 5818 5819 5820 5821 5824 5824 5824 5821 5822 5829 5823 5819 5818 5816 5817 5819 5817 5815 5812 5809 5806 5803 5799 5795 5790 5786 5783 5778 5774 5769 5766 5763 5757 5752 5749 5745 5741 5739 5737 5734 5732 5730 5728 5726 5725 5725 5725 5726
5806 5807 5808 5809 5813 5817 5818 5816 5809 5818 5815 5808 5807 5807 5808 5811 5813 5809 5809 5806 5803 5801 5798 5795 5790 5786 5781 5777 5772 5768 5764 5760 5756 5751 5747 5744 5740 5736 5732 5729 5727 5725 5722 5720 5718 5718 5717 5716 5718
5795 5794 5797 5802 5807 5808 5810 5799 5805 5809 5800 5792 5795 5798 5802 5807 5804 5803 5802 5800 5797 5796 5793 5790 5785 5781 5776 5772 5767 5762 5758 5754 5749 5744 5741 5736 5732 5729 5726 5722 5720 5718 5714 5712 5711 5710 5709 5708 5709
5784 5786 5788 5796 5802 5803 5802 5785 5798 5798 5790 5788 5788 5791 5796 5800 5798 5797 5795 5794 5793 5791 5788 5784 5780 5776 5771 5766 5762 5757 5752 5747 5744 5739 5734 5730 5726 5722 5718 5715 5712 5709 5707 5705 5703 5702 5701 5701 5702
5771 5776 5782 5788 5796 5797 5794 5779 5794 5789 5784 5783 5784 5788 5793 5793 5793 5791 5790 5787 5787 5785 5782 5778 5775 5770 5766 5762 5757 5751 5746 5743 5739 5734 5729 5724 5720 5716 5713 5709 5706 5702 5700 5698 5697 5696 5695 5696 5697
5766 5772 5777 5778 5791 5786 5782 5775 5783 5786 5779 5782 5785 5787 5788 5788 5788 5786 5784 5782 5780 5779 5775 5771 5769 5766 5761 5756 5751 5746 5742 5738 5734 5729 5724 5720 5716 5712 5708 5703 5699 5696 5694 5692 5692 5691 5691 5691 5692
5759 5763 5766 5775 5780 5774 5775 5769 5777 5779 5776 5781 5782 5784 5784 5784 5784 5781 5778 5776 5774 5773 5769 5766 5764 5759 5755 5751 5745 5741 5738 5733 5729 5723 5719 5715 5710 5706 5701 5696 5692 5690 5688 5688 5687 5686 5687 5689 5690
5748 5754 5759 5772 5771 5767 5768 5764 5770 5773 5775 5776 5778 5780 5780 5779 5778 5775 5773 5770 5769 5768 5765 5761 5759 5754 5750 5746 5741 5737 5733 5728 5723 5718 5714 5709 5705 5700 5695 5690 5687 5685 5685 5685 5684 5685 5686 5688 5691
5741 5746 5757 5763 5762 5759 5758 5755 5762 5769 5769 5770 5775 5775 5775 5774 5772 5770 5768 5766 5764 5762 5759 5756 5754 5750 5745 5740 5737 5733 5728 5724 5719 5715 5710 5705 5701 5695 5690 5685 5683 5682 5681 5682 5683 5685 5687 5690 5694
5732 5743 5748 5754 5753 5751 5752 5746 5757 5762 5764 5768 5771 5770 5771 5769 5766 5765 5764 5761 5759 5757 5755 5752 5749 5745 5740 5736 5733 5729 5724 5719 5715 5711 5706 5701 5696 5691 5686 5683 5681 5680 5680 5680 5682 5686 5688 5691 5696
5723 5735 5739 5744 5742 5741 5745 5741 5756 5756 5760 5765 5766 5767 5765 5763 5763 5763 5760 5757 5755 5753 5750 5748 5744 5740 5736 5733 5729 5725 5720 5716 5711 5706 5701 5697 5692 5688 5683 5682 5681 5680 5679 5678 5683 5688 5691 5694 5697
5717 5721 5729 5734 5735 5727 5742 5743 5748 5755 5758 5760 5761 5760 5761 5760 5760 5759 5756 5753 5750 5748 5746 5743 5740 5736 5733 5730 5726 5721 5718 5713 5707 5703 5699 5695 5690 5685 5682 5682 5681 5680 5679 5681 5685 5690 5693 5697 5702
5706 5715 5719 5723 5722 5720 5743 5738 5743 5751 5752 5755 5756 5757 5757 5756 5757 5754 5752 5749 5747 5745 5742 5739 5736 5733 5730 5727 5722 5719 5715 5710 5705 5701 5696 5692 5687 5684 5683 5682 5682 5682 5682 5686 5688 5692 5696 5700 5704
5704 5711 5714 5717 5722 5725 5738 5729 5740 5749 5748 5750 5752 5753 5754 5753 5752 5750 5748 5745 5744 5741 5739 5736 5733 5731 5728 5724 5720 5717 5713 5709 5704 5699 5694 5690 5686 5685 5684 5683 5683 5684 5686 5689 5692 5695 5699 5702 5706
5697 5698 5712 5714 5716 5718 5728 5731 5739 5742 5744 5747 5751 5752 5750 5749 5749 5747 5744 5742 5740 5738 5736 5734 5731 5729 5726 5721 5718 5716 5712 5708 5703 5698 5694 5689 5686 5686 5686 5685 5685 5687 5689 5692 5695 5698 5701 5704 5708
5688 5698 5702 5704 5706 5710 5717 5727 5735 5738 5740 5745 5748 5748 5746 5747 5746 5744 5743 5741 5738 5736 5734 5732 5730 5727 5724 5720 5718 5715 5711 5708 5703 5699 5694 5689 5688 5689 5689 5688 5689 5690 5693 5696 5699 5702 5704 5707 5712
5679 5681 5688 5697 5698 5703 5710 5723 5731 5734 5737 5742 5743 5743 5743 5743 5742 5742 5740 5738 5736 5734 5732 5731 5729 5726 5723 5720 5718 5715 5712 5708 5704 5700 5695 5693 5693 5693 5692 5692 5693 5695 5697 5699 5702 5705 5708 5711 5715
5672 5678 5688 5694 5699 5703 5709 5720 5725 5730 5734 5737 5739 5740 5740 5740 5740 5740 5737 5735 5734 5733 5731 5730 5728 5726 5723 5721 5719 5716 5712 5709 5705 5702 5699 5697 5697 5697 5697 5697 5698 5699 5702 5704 5706 5708 5711 5714 5717